GFSNIL_con_lsi_000.txt.gz
Lid_Strength_Index
15 15 15 16 15 16 16 16 17 17 18 18 18 18 18 18 19 19 19 19 19 19
15 15 15 16 16 16 16 16 17 17 18 18 18 18 18 18 19 19 19 19 19 19
15 14 15 16 16 16 16 17 18 18 18 18 18 18 18 19 19 19 19 19 19 19
16 16 16 16 16 16 17 17 18 17 18 18 18 18 18 19 19 19 20 20 20 20
16 16 17 16 16 16 17 17 17 17 18 18 18 18 18 19 19 20 20 20 20 21
15 16 16 15 15 16 16 17 17 17 18 18 18 18 18 19 19 20 20 20 20 21
15 15 14 14 15 16 16 17 17 17 17 17 18 18 18 19 19 20 19 19 20 21
14 15 14 14 15 16 16 16 17 17 17 18 18 18 18 19 19 20 20 20 20 21
13 14 15 15 15 16 16 17 17 17 17 18 18 15 15 17 19 19 20 21 21 21
14 15 14 15 16 17 17 17 17 17 18 18 18 15 14 15 19 19 20 20 21 21
14 15 16 17 17 18 18 17 18 17 17 17 18 15 14 15 18 19 20 21 21 21
15 15 16 17 17 17 17 18 17 17 17 17 18 15 13 15 19 19 20 20 20 20
16 17 17 18 18 17 16 17 17 18 17 18 18 15 14 15 19 20 21 20 20 19
14 16 17 16 19 18 18 19 19 20 19 19 18 17 13 13 18 19 20 21 21 19

GFSNIL_con_lsi_003.txt.gz
Lid_Strength_Index
13 13 14 14 14 15 14 14 14 15 15 15 15 15 15 15 15 16 16 16 16 16
14 14 14 15 15 14 14 14 14 15 15 16 16 16 16 16 16 16 16 16 16 16
14 14 14 15 15 15 15 15 16 15 15 16 16 16 16 16 16 17 17 17 17 17
14 14 14 15 15 15 15 15 16 16 16 16 17 17 17 16 17 17 17 17 17 17
14 14 15 15 15 15 15 15 15 16 16 16 17 17 17 17 17 17 18 18 18 18
13 13 14 14 14 15 15 15 15 16 16 16 16 16 16 16 17 17 17 18 18 18
14 14 14 13 14 14 14 15 15 16 16 16 16 16 16 17 17 17 17 17 18 18
14 14 14 13 13 13 14 14 14 15 15 15 16 16 16 17 17 17 18 18 18 18
14 14 14 14 14 14 13 13 14 14 15 16 16 14 14 16 17 17 18 19 18 18
13 14 15 15 15 15 14 13 14 14 15 16 15 13 13 13 16 17 17 18 19 19
14 15 14 14 14 14 14 14 14 14 14 15 15 13 12 13 15 17 17 18 18 19
16 17 15 15 15 15 15 15 14 14 14 15 15 13 12 12 15 17 17 18 18 18
16 16 15 15 15 14 16 16 15 15 15 15 15 13 12 11 13 17 18 18 19 18
16 16 16 15 14 15 16 16 17 17 16 16 16 15 12 11 13 16 17 19 19 19

GFSNIL_con_lsi_006.txt.gz
Lid_Strength_Index
11 11 10 10 10 10 10 10 11 11 11 11 11 11 12 12 12 12 11 11 10 11
11 11 11 11 11 11 10 11 11 11 12 11 11 12 12 13 13 12 12 12 11 11
11 11 11 11 12 12 11 11 12 12 12 12 12 12 13 12 12 13 13 12 13 13
11 11 12 12 12 12 12 12 12 12 12 12 13 12 13 12 12 13 13 14 14 14
12 12 12 12 11 11 12 12 12 12 13 12 13 12 13 13 13 14 15 15 15 14
12 13 13 13 12 12 12 13 12 12 12 13 13 13 13 14 14 15 14 15 15 15
11 11 12 14 14 13 12 12 13 13 13 13 13 13 14 14 14 14 14 14 14 15
11 11 12 12 13 13 14 13 13 13 13 13 13 14 14 14 14 14 15 15 15 15
11 11 12 12 13 13 14 14 13 14 13 13 14 12 12 13 14 14 15 15 15 15
12 13 13 13 13 13 14 13 14 14 13 13 13 12 12 12 14 14 14 15 15 16
12 13 13 14 13 13 13 14 14 14 13 13 13 11 11 12 13 13 14 14 14 15
12 14 15 16 15 13 13 13 14 13 13 13 12 12 11 11 12 13 14 14 14 14
12 15 16 15 16 15 14 13 12 14 13 13 13 12 12 12 12 13 13 13 14 14
14 15 15 16 16 16 16 15 15 13 12 12 13 13 12 12 12 12 12 13 14 15

GFSNIL_con_lsi_009.txt.gz
Lid_Strength_Index
10 11 11 10 10 10 9 9 8 9 9 9 9 9 10 10 11 11 11 11 10 11
10 10 11 10 11 11 11 10 10 10 10 10 10 10 10 10 11 11 11 11 11 11
11 11 11 11 11 11 11 11 11 11 11 11 11 11 11 11 11 11 12 12 12 12
12 12 12 13 13 12 11 11 11 11 12 12 12 12 12 12 12 13 12 13 13 13
11 12 13 14 13 13 12 12 11 12 12 12 12 12 12 13 13 13 13 13 13 13
12 12 13 13 13 13 13 13 12 12 12 12 13 12 12 13 13 13 13 13 13 13
12 12 12 13 13 13 12 12 12 12 12 12 12 13 13 13 14 13 13 13 13 13
11 11 12 13 13 13 12 12 11 12 12 12 12 13 13 13 14 14 14 14 14 13
11 11 11 12 12 13 13 11 11 12 12 12 12 11 11 12 13 14 14 14 14 14
11 12 12 12 13 13 13 12 12 12 12 13 12 10 10 10 12 13 14 14 14 14
11 12 12 12 14 14 14 14 13 13 12 12 13 11 10 10 11 12 13 13 14 14
11 12 12 13 14 14 15 15 15 14 14 13 12 11 11 10 11 12 12 13 13 13
12 13 14 14 14 14 15 15 15 16 15 15 14 11 10 10 11 12 12 12 12 12
15 16 16 16 16 17 17 17 18 17 17 16 16 15 11 10 11 11 12 12 11 12

GFSNIL_con_lsi_012.txt.gz
Lid_Strength_Index
12 12 12 12 12 13 13 13 13 12 12 11 11 11 12 13 14 14 13 14 14 13
13 13 13 13 13 12 12 12 13 13 13 13 13 13 13 14 14 14 14 14 14 14
12 12 13 14 14 14 13 13 13 13 13 13 13 14 14 15 14 15 15 14 14 15
12 12 13 14 13 13 14 14 13 13 14 14 14 14 14 14 14 15 15 14 14 14
13 12 13 13 13 14 14 13 13 14 14 14 14 14 15 15 15 15 15 15 15 14
13 13 13 13 13 14 14 14 14 14 14 14 14 14 13 14 14 14 15 14 14 14
13 13 13 12 13 13 13 14 15 14 14 14 13 13 13 14 14 13 13 13 14 13
12 12 12 13 13 13 14 13 14 14 14 13 13 13 13 14 13 13 13 13 13 13
12 12 12 12 12 13 13 14 14 14 14 13 13 11 10 9 11 12 13 13 13 13
12 12 12 12 12 13 13 13 14 15 14 14 14 11 11 10 11 11 11 11 12 12
12 12 12 13 13 13 13 14 14 15 15 15 15 12 11 11 11 12 11 11 11 11
13 14 14 14 14 14 15 15 15 15 15 16 16 13 13 13 13 13 12 12 11 11
15 16 17 16 17 17 17 17 17 17 17 17 17 15 14 14 15 15 14 13 12 11
17 19 19 19 19 20 20 20 21 21 20 20 19 19 15 14 15 16 15 14 13 12

GFSNIL_con_lsi_015.txt.gz
Lid_Strength_Index
13 13 14 14 14 14 15 14 14 14 13 13 13 13 12 13 14 14 14 13 13 12
13 14 14 14 14 14 14 13 13 13 13 13 13 14 14 14 15 15 15 14 14 13
13 13 13 14 14 14 14 14 13 13 12 13 14 14 15 15 15 15 15 15 15 15
12 13 13 14 14 14 14 14 14 14 14 13 12 14 15 15 15 15 15 15 16 15
12 12 13 14 14 14 15 15 15 14 14 14 13 13 13 14 13 15 15 14 15 15
13 13 13 13 13 13 13 14 15 15 15 14 13 13 13 12 13 13 13 13 13 13
14 14 13 13 13 13 13 14 14 14 13 13 13 13 13 12 12 12 12 13 13 13
13 12 12 13 13 13 13 13 13 14 14 14 14 13 13 13 13 12 12 12 12 12
12 11 11 11 11 11 11 12 12 13 13 14 14 12 11 11 13 13 13 13 12 12
12 12 11 11 12 12 13 13 13 13 13 14 14 11 11 11 13 14 14 13 13 12
12 13 13 13 14 14 14 14 14 14 14 15 15 12 12 12 13 14 14 14 13 13
15 16 16 17 17 16 17 17 17 17 17 18 17 14 14 14 15 15 16 15 15 14
16 18 18 18 19 19 19 19 19 19 19 20 21 17 16 16 17 18 17 16 15 14
17 19 20 20 19 20 21 21 22 22 21 21 20 20 17 15 16 17 18 17 17 15

GFSNIL_con_lsi_018.txt.gz
Lid_Strength_Index
14 14 14 14 14 14 14 14 15 15 15 15 15 15 15 15 15 15 15 14 14 13
13 14 15 15 15 15 14 13 14 14 15 15 15 15 15 15 15 16 16 16 15 14
13 13 14 14 15 15 14 14 14 15 14 14 14 14 15 15 15 15 15 14 15 15
14 14 14 14 14 14 14 14 14 14 14 14 14 14 14 15 15 15 14 14 14 14
14 14 14 15 15 14 14 14 14 14 14 14 14 14 14 14 15 15 15 15 14 14
13 14 15 15 14 14 14 14 14 14 15 15 15 15 14 14 14 14 14 14 14 14
14 14 14 14 14 14 14 15 15 14 14 15 15 15 15 15 15 14 14 13 14 14
13 13 13 13 13 13 13 13 14 14 14 14 14 14 14 14 14 15 15 14 14 14
12 12 12 12 12 13 13 13 13 14 14 14 13 11 11 11 13 14 14 14 14 14
13 13 13 13 13 14 14 14 15 15 15 15 15 12 12 11 13 14 14 14 14 14
13 15 15 15 16 16 16 16 16 17 17 17 16 14 13 14 15 16 16 15 15 15
16 17 17 18 18 17 18 18 19 18 18 19 19 16 15 15 17 17 17 17 16 16
16 20 19 19 19 19 19 19 19 19 20 20 21 18 16 16 17 19 18 17 16 15
18 19 20 20 20 20 21 20 22 21 21 21 20 20 17 15 17 18 18 18 17 16

GFSNIL_con_lsi_021.txt.gz
Lid_Strength_Index
16 15 16 16 16 16 15 15 15 15 14 15 15 15 15 16 16 16 16 16 16 15
15 16 16 16 16 16 15 14 15 15 15 15 15 15 15 16 16 16 16 16 15 15
15 14 15 16 16 16 16 15 15 15 15 15 15 15 15 15 15 16 16 15 15 15
14 14 14 14 15 16 15 14 14 14 15 15 15 15 16 16 16 16 15 15 16 15
14 14 14 15 14 14 14 14 14 14 14 15 15 15 16 16 16 16 16 15 15 15
14 15 15 14 14 14 14 14 15 14 15 15 15 15 15 16 16 16 15 15 15 15
14 14 14 14 14 15 15 15 15 15 15 15 15 15 15 15 15 15 15 15 15 15
14 14 14 15 15 15 15 15 15 15 15 15 15 14 14 14 15 15 15 15 15 15
14 14 14 14 14 14 14 14 14 15 15 15 14 12 12 12 14 14 15 16 15 15
14 14 14 15 15 15 16 15 16 16 16 16 16 14 12 13 14 15 16 16 16 16
14 16 16 16 17 17 17 17 17 17 17 17 17 14 14 14 15 16 16 17 17 17
16 18 17 19 19 18 18 19 19 18 18 19 19 16 15 15 16 17 17 17 17 17
16 20 20 19 19 19 20 19 19 19 19 20 21 17 15 15 16 18 17 16 16 14
18 20 20 21 20 21 21 20 22 21 21 21 20 19 15 14 16 17 18 17 17 15

GFSNIL_con_lsi_024.txt.gz
Lid_Strength_Index
17 17 17 17 17 17 17 17 17 17 16 16 16 16 17 17 16 16 16 16 15 14
16 17 17 17 17 16 16 16 16 16 16 16 16 16 17 17 16 16 16 16 15 15
16 15 15 15 15 15 15 15 15 15 15 16 15 16 16 16 16 16 16 15 16 15
15 15 15 15 15 15 15 15 15 15 15 15 16 16 16 16 16 16 16 16 16 15
15 15 15 15 15 15 15 15 15 15 15 15 15 15 16 16 16 16 16 16 16 16
14 15 15 15 15 15 15 15 15 15 16 16 16 16 16 15 15 15 15 15 15 15
14 14 15 15 15 15 15 16 16 16 16 16 16 16 15 15 15 15 15 15 15 15
14 14 15 15 16 16 16 16 16 16 16 16 15 14 14 14 14 14 14 14 14 14
15 15 16 16 16 16 16 16 16 16 16 16 15 12 11 11 13 14 15 15 15 15
16 16 17 16 16 16 16 16 16 16 17 17 17 13 12 12 13 14 15 15 16 16
17 17 17 17 17 17 17 17 18 18 18 17 17 13 13 12 14 15 16 16 16 16
17 18 18 19 19 18 19 19 19 18 19 19 19 15 13 14 15 16 16 16 16 16
17 20 20 19 20 20 21 19 18 19 19 19 20 16 14 13 15 17 16 16 15 13
17 20 20 21 21 22 23 20 22 21 20 21 20 19 14 13 14 15 15 15 15 14

GFSNIL_con_lsi_027.txt.gz
Lid_Strength_Index
14 15 15 15 15 15 15 15 15 15 16 15 15 15 14 14 14 14 14 14 14 13
14 15 16 15 15 15 15 15 15 15 15 15 14 14 14 14 15 14 14 14 14 14
14 15 14 14 15 14 14 14 14 14 14 14 14 14 14 15 15 15 15 14 15 14
14 14 13 13 13 13 13 14 14 14 14 14 15 14 15 15 15 15 15 14 14 14
13 13 13 14 14 13 14 14 14 14 15 15 15 15 15 15 15 15 15 14 14 14
13 13 13 13 13 13 14 14 15 15 15 15 15 15 15 15 15 15 15 15 15 15
13 13 13 13 14 14 14 15 15 15 16 16 16 16 15 14 14 14 14 14 14 14
12 13 13 14 14 15 15 16 16 16 16 16 16 14 13 13 13 13 13 13 13 13
13 14 14 15 15 16 16 17 17 17 17 17 15 13 11 11 12 13 14 14 14 14
14 14 15 16 16 17 17 17 17 17 16 16 16 13 11 11 12 13 14 14 14 15
15 16 17 17 17 17 17 17 17 17 17 16 16 13 12 11 13 14 14 14 14 15
16 17 17 18 18 17 17 17 18 16 17 18 18 14 12 12 13 14 14 14 14 14
16 18 18 17 18 18 19 17 17 18 18 18 19 16 13 12 13 14 14 13 13 12
17 18 18 19 18 20 20 19 21 20 19 19 19 18 13 12 12 13 13 13 13 12

GFSNIL_con_lsi_030.txt.gz
Lid_Strength_Index
12 12 12 12 12 12 12 12 12 13 13 13 12 13 13 13 12 12 12 12 12 12
13 12 13 12 12 12 11 12 12 11 12 12 12 12 11 12 12 12 12 12 12 12
12 12 12 12 12 11 11 11 11 11 11 11 11 11 11 11 11 12 11 11 12 11
12 12 12 11 11 11 11 11 11 11 12 12 12 12 12 12 12 12 12 12 12 12
12 12 11 11 10 10 11 11 11 12 12 12 12 12 13 13 12 13 13 12 12 13
12 11 11 10 11 11 11 11 12 12 13 13 13 13 13 12 12 12 12 12 13 13
11 11 10 10 10 11 11 12 12 13 13 13 13 13 13 13 12 12 12 12 12 12
10 10 10 11 11 12 12 12 13 13 14 14 14 13 12 12 12 12 12 11 12 11
10 10 11 11 12 13 13 13 14 14 14 14 14 14 12 11 11 11 12 12 12 12
10 11 11 12 13 13 14 14 14 14 14 14 13 13 11 11 11 11 11 12 12 12
11 11 12 13 13 13 13 14 14 13 14 13 13 13 12 11 11 11 11 12 12 12
11 12 13 14 13 13 13 13 13 13 14 14 14 13 12 11 11 11 12 11 11 11
11 12 13 13 14 13 13 14 14 14 14 15 15 14 12 11 11 11 11 11 10 9
12 13 13 13 13 14 14 15 15 15 14 15 15 14 12 11 10 11 11 10 10 10

GFSNIL_con_lsi_033.txt.gz
Lid_Strength_Index
11 11 12 12 12 12 12 13 12 12 12 12 12 12 11 11 11 10 10 11 10 11
12 12 12 12 12 12 12 12 12 12 12 12 11 11 11 11 11 10 10 10 10 10
12 12 12 12 12 12 13 12 12 12 12 11 11 11 10 10 10 11 10 10 11 10
13 12 12 12 12 12 12 12 12 11 11 11 11 11 11 11 11 11 11 11 11 11
13 12 12 12 12 11 12 11 12 11 11 11 12 11 12 12 11 12 12 11 12 12
13 12 12 12 12 11 12 11 12 12 12 12 12 12 12 12 12 11 11 11 12 12
12 12 12 11 12 11 11 11 12 12 12 12 12 12 12 12 11 11 11 10 11 11
12 11 11 12 11 11 12 11 11 12 12 12 13 12 12 11 11 11 11 10 10 10
12 12 12 12 12 12 12 12 13 13 13 13 13 12 12 11 11 10 11 11 10 10
12 12 12 12 12 12 12 12 13 13 13 13 13 11 11 10 11 11 10 11 11 11
12 12 12 12 12 12 12 13 13 13 13 13 12 11 11 10 11 10 10 10 11 11
12 12 12 13 13 12 13 13 13 13 13 13 12 11 11 11 11 11 10 10 10 10
11 12 12 12 13 12 12 13 13 12 12 13 14 12 11 10 11 11 11 10 10 8
12 12 12 12 12 13 14 13 14 14 13 13 13 13 11 10 10 10 10 10 10 9

GFSNIL_con_lsi_036.txt.gz
Lid_Strength_Index
14 15 15 15 15 16 16 16 16 16 15 15 15 15 15 15 15 15 15 14 14 13
15 15 15 15 15 16 16 15 15 15 16 15 15 15 15 15 15 14 14 14 13 13
15 15 15 15 16 16 16 16 16 16 16 16 16 16 15 15 14 14 14 13 14 14
16 16 15 16 16 16 16 16 16 16 16 16 16 16 15 15 14 14 14 14 14 13
16 16 16 16 16 16 16 16 16 16 16 16 16 15 15 15 14 14 14 13 13 13
17 16 16 16 16 16 16 16 16 16 16 16 15 15 15 14 14 13 13 13 13 13
17 16 16 16 16 16 16 17 17 16 16 15 15 15 14 14 13 13 13 12 12 12
16 16 16 16 16 16 16 16 16 16 16 15 15 14 14 13 13 13 13 12 12 11
16 16 16 16 16 16 16 16 16 16 16 16 14 12 12 12 13 12 12 12 11 11
16 16 16 16 16 16 17 16 16 16 16 15 15 12 11 11 12 12 12 11 11 11
16 16 17 17 17 17 16 16 16 16 15 15 15 11 11 11 12 12 11 11 11 11
16 17 16 17 17 17 16 16 16 16 16 16 16 11 10 10 12 12 11 10 10 10
16 16 16 16 17 16 17 15 15 15 16 16 18 11 10 10 12 16 12 11 9 8
16 15 15 16 17 16 17 16 17 17 18 18 16 15 10 9 11 12 13 12 11 9

GFSNIL_con_lsi_039.txt.gz
Lid_Strength_Index
15 15 16 16 16 17 17 17 17 17 17 17 16 16 17 17 16 17 17 17 16 16
15 16 16 16 17 17 17 17 17 17 17 17 17 16 17 17 17 17 17 17 16 15
16 16 16 16 17 17 17 17 17 17 17 17 17 17 17 17 17 17 17 16 16 16
17 16 17 17 17 18 18 18 17 17 17 17 18 17 18 18 17 17 17 16 16 15
17 17 17 17 18 18 18 17 17 17 17 18 18 17 18 17 17 17 16 15 15 15
18 18 18 18 18 18 18 18 18 18 18 18 18 18 17 17 16 16 15 14 14 14
18 18 18 18 18 18 18 18 18 18 18 18 18 17 17 17 16 15 14 13 13 13
18 18 18 18 17 17 17 18 18 18 18 18 18 17 17 16 15 15 14 14 13 13
18 18 17 17 17 17 18 18 18 18 18 19 17 14 13 14 14 13 13 14 13 13
17 17 17 17 17 18 18 18 19 19 18 18 17 12 11 11 13 13 13 13 13 12
17 17 17 17 18 18 19 19 19 18 18 17 16 12 11 10 13 13 13 13 12 12
16 17 17 18 18 18 18 19 19 18 18 17 17 11 10 10 13 13 13 12 12 11
16 16 17 17 18 20 19 17 17 17 17 17 18 12 10 10 13 17 14 13 11 9
16 16 16 17 19 20 18 18 19 18 18 17 17 16 10 9 12 13 15 14 12 10

GFSNIL_con_lsi_042.txt.gz
Lid_Strength_Index
15 16 16 17 17 17 18 18 18 18 18 18 18 18 18 18 18 18 18 18 17 17
16 16 17 17 17 18 18 18 18 18 18 18 18 18 18 18 18 18 18 18 18 17
16 16 17 17 18 18 18 18 19 19 19 18 18 18 18 19 18 18 18 18 18 18
17 17 17 18 18 18 18 19 19 19 19 18 18 18 19 19 18 18 18 18 18 18
17 17 18 18 18 19 18 19 19 19 19 19 19 19 19 19 18 19 18 18 18 18
18 18 18 18 19 19 19 19 19 19 19 19 19 19 18 18 18 18 18 17 17 17
18 18 18 18 19 18 18 18 19 19 19 18 18 18 18 18 18 18 17 17 16 16
18 18 19 18 18 18 18 18 18 18 18 18 18 18 18 18 18 18 17 17 15 15
18 18 18 18 18 18 18 19 18 18 19 19 18 15 14 16 17 17 17 16 15 14
18 18 17 17 17 18 18 18 18 18 19 19 19 14 13 13 17 16 16 15 14 14
17 17 17 17 17 18 18 18 18 19 19 19 18 14 12 12 15 16 15 14 14 14
17 17 17 17 17 17 18 18 19 19 19 19 19 13 12 12 15 14 14 13 13 13
16 16 17 16 17 17 17 17 18 18 19 19 19 13 11 11 14 17 14 14 13 11
16 16 16 16 17 19 18 19 19 19 20 20 19 18 11 9 13 13 15 15 14 13

GFSNIL_con_lsi_045.txt.gz
Lid_Strength_Index
15 15 15 16 16 17 17 18 18 18 18 18 18 18 19 18 19 19 19 19 19 18
15 15 16 17 17 17 18 17 18 18 19 19 19 19 19 19 19 19 19 19 19 18
16 16 16 17 17 18 18 18 18 19 19 19 19 19 19 19 20 20 20 19 19 19
17 17 17 17 18 18 18 19 19 19 19 19 19 19 19 20 20 19 19 19 19 19
18 18 18 18 18 18 19 19 19 19 19 19 19 19 19 19 19 19 19 19 19 19
18 18 18 18 19 18 19 19 19 19 19 19 19 19 19 19 19 19 19 19 19 19
18 18 18 18 19 18 19 19 19 19 19 19 19 18 18 18 19 19 18 18 18 18
18 18 18 19 19 19 19 19 19 19 19 19 18 18 18 18 18 19 19 18 17 18
18 18 18 18 19 19 19 19 19 19 18 18 18 15 15 17 18 18 18 18 18 18
18 18 18 18 19 19 19 19 19 19 19 18 18 14 14 14 18 18 18 18 18 17
18 18 18 18 18 19 19 19 19 19 18 18 18 14 13 13 17 18 18 18 17 17
18 18 18 18 19 19 18 19 18 18 18 18 18 14 13 13 17 16 17 17 17 16
17 17 18 18 18 18 17 17 18 18 18 18 17 14 12 12 16 18 17 16 15 13
17 17 17 17 17 17 17 17 18 18 18 18 18 18 12 12 16 15 17 16 15 14

GFSNIL_con_lsi_048.txt.gz
Lid_Strength_Index
13 13 13 14 15 16 16 17 18 18 18 18 18 18 18 18 19 18 19 19 19 19
14 14 15 15 16 17 17 18 18 18 18 19 18 18 19 18 19 19 19 19 19 19
14 14 15 16 17 17 17 18 19 19 19 19 19 19 19 19 19 19 20 19 19 19
15 15 16 16 17 17 18 19 18 18 19 19 19 19 19 19 20 20 20 20 20 20
17 16 17 17 17 18 18 18 18 19 19 19 19 19 19 20 20 20 20 20 20 20
18 17 17 17 18 18 18 19 19 19 19 19 19 19 19 19 19 19 19 19 19 20
18 17 17 18 18 18 19 19 19 19 19 19 19 19 19 19 19 19 18 18 19 19
17 17 17 18 18 18 19 19 19 19 19 19 19 19 19 19 19 19 19 19 18 19
17 18 18 18 18 19 19 19 19 19 20 20 19 17 16 18 18 18 19 19 19 18
18 18 18 18 19 19 19 19 20 20 20 20 19 16 14 15 18 18 18 19 18 18
18 18 18 18 19 19 19 19 20 20 19 19 19 15 14 14 17 18 18 18 18 18
17 18 18 19 19 19 19 19 19 19 19 19 18 14 13 13 16 17 17 18 17 17
17 17 18 18 19 19 18 19 19 19 18 18 17 14 12 13 15 16 16 17 17 15
17 17 17 18 18 18 18 19 19 18 18 17 17 16 13 12 15 15 16 16 16 16

GFSNIL_con_lsi_051.txt.gz
Lid_Strength_Index
9 11 11 11 12 13 14 14 16 16 16 16 16 16 16 15 16 15 15 16 16 16
11 11 11 12 13 14 14 15 16 16 17 17 17 16 16 16 16 15 16 16 17 17
12 12 12 13 14 16 16 17 17 18 17 17 17 17 17 17 17 16 17 17 17 18
12 13 14 14 14 16 17 17 18 18 18 18 18 17 17 17 17 17 18 18 18 18
13 14 15 14 15 16 17 18 18 18 18 18 18 17 17 18 18 18 18 18 19 19
15 14 14 15 16 17 17 18 18 18 18 18 18 18 18 18 18 18 18 18 19 19
15 15 15 15 16 17 17 18 18 18 18 18 18 18 18 18 18 18 18 18 18 18
15 15 15 16 16 17 17 18 18 18 18 18 18 18 18 18 19 19 19 19 18 17
16 16 16 16 17 17 18 18 18 19 19 19 19 16 16 18 19 19 19 19 17 17
16 17 16 17 17 18 18 18 19 19 19 19 18 15 15 16 19 19 18 17 17 17
17 17 17 17 17 18 18 19 19 19 19 19 19 15 15 16 19 18 17 16 17 17
16 17 17 18 18 18 18 18 18 18 19 19 19 15 15 16 18 17 16 16 17 17
17 18 18 17 18 17 17 18 18 19 18 18 19 15 15 14 15 15 16 16 17 15
17 18 17 18 18 18 18 19 19 19 19 18 18 16 13 12 14 14 15 15 15 15

GFSNIL_con_lsi_054.txt.gz
Lid_Strength_Index
4 5 5 6 5 7 7 8 8 11 13 13 12 9 9 9 9 10 10 11 12 13
5 6 6 7 7 7 7 9 11 12 13 14 14 11 11 10 12 12 12 13 13 13
6 7 7 8 9 8 9 10 12 14 15 15 15 12 12 13 13 13 13 14 14 15
7 7 7 8 9 10 12 12 13 15 16 16 16 15 14 14 14 15 15 15 15 16
8 8 8 9 10 11 12 13 13 16 16 17 17 17 15 15 15 15 16 16 16 17
9 9 9 9 11 12 12 13 14 16 17 17 17 17 16 15 16 15 15 16 16 17
9 9 9 10 12 13 13 14 16 16 17 17 17 17 17 16 16 16 16 16 16 17
10 10 10 11 13 14 14 15 16 17 17 17 18 18 17 17 16 17 17 17 17 17
10 12 12 13 14 15 15 16 17 17 18 18 18 16 15 17 18 17 18 18 18 17
12 13 13 14 15 15 16 17 17 17 17 18 18 15 15 16 18 18 18 18 18 18
13 14 14 14 15 15 16 17 17 17 17 18 18 15 15 16 17 17 17 17 17 16
14 14 14 15 15 15 16 17 17 17 17 18 17 14 14 16 17 17 18 17 15 14
14 15 15 15 15 15 15 16 17 17 17 18 16 14 14 16 17 17 17 15 15 15
14 15 14 15 15 15 16 17 18 18 17 17 16 15 14 14 16 16 14 13 14 15

GFSNIL_con_lsi_057.txt.gz
Lid_Strength_Index
3 3 3 4 3 4 5 6 7 8 8 7 7 7 8 9 9 10 10 10 11 12
4 4 4 4 3 3 4 4 5 7 8 8 9 9 9 9 10 10 10 10 12 13
5 4 4 4 5 5 5 6 6 7 9 11 11 11 11 11 11 12 11 12 13 14
6 5 5 6 5 6 6 7 9 10 11 12 13 12 12 13 13 13 14 14 15 15
6 6 6 6 6 6 7 8 9 10 12 12 14 14 13 14 14 14 15 15 16 16
7 7 6 6 6 7 8 11 11 13 14 14 15 16 15 15 15 15 16 15 16 17
7 7 7 7 7 8 10 12 12 14 14 14 15 16 16 16 16 16 16 16 16 17
8 7 7 8 8 10 11 12 13 15 15 16 16 17 16 16 16 16 17 17 17 17
9 9 10 10 11 12 13 14 15 16 16 17 17 15 14 16 17 17 17 18 18 17
11 11 11 12 13 13 14 14 16 16 16 17 17 15 14 15 17 17 17 18 17 17
12 13 13 13 13 14 14 15 16 16 16 16 17 14 14 15 17 17 17 17 17 16
13 14 13 14 14 14 15 15 16 16 16 17 17 14 14 15 16 17 17 16 16 15
13 14 14 14 15 15 15 15 16 17 16 16 16 14 13 15 16 17 17 16 16 15
14 15 14 14 14 15 16 17 17 17 17 16 15 14 13 14 16 16 17 17 16 15

GFSNIL_con_lsi_060.txt.gz
Lid_Strength_Index
5 5 5 6 5 5 6 6 6 6 6 6 7 7 7 8 9 9 10 10 11 11
6 6 6 6 6 6 6 6 7 7 8 8 7 7 8 8 9 9 10 10 11 13
6 6 6 6 7 7 6 6 7 8 8 8 8 8 8 9 9 10 10 10 12 14
7 7 7 7 7 7 7 8 8 8 8 10 10 10 9 11 11 11 12 13 14 15
8 7 7 8 8 8 8 9 10 11 12 13 13 12 11 12 11 12 13 14 15 16
8 8 8 8 8 8 9 10 12 12 13 14 13 14 12 12 12 12 13 14 15 15
9 8 8 8 9 9 10 12 13 14 13 14 14 15 14 14 14 14 14 15 15 16
10 9 9 10 11 11 12 13 14 15 15 15 15 15 15 15 15 15 16 16 16 16
10 11 12 12 12 13 14 14 15 15 15 15 15 13 13 14 15 16 16 17 17 16
13 13 12 13 13 14 15 15 16 16 15 16 16 13 13 13 16 16 16 17 17 16
14 15 15 15 15 15 16 16 17 17 16 16 16 14 13 14 16 16 16 16 16 16
15 16 16 17 17 17 17 18 19 16 16 16 16 14 13 15 16 17 17 16 16 15
15 16 17 17 18 18 19 17 16 16 16 16 16 13 13 15 16 17 17 16 16 15
16 17 17 17 19 19 19 17 17 17 17 16 15 14 13 14 16 16 17 17 16 15

GFSNIL_con_lsi_063.txt.gz
Lid_Strength_Index
6 6 5 6 6 5 6 6 6 5 4 4 4 5 6 7 8 8 9 9 10 9
6 6 6 6 6 5 6 6 6 6 6 5 6 6 6 7 8 8 9 9 10 10
6 6 5 6 6 7 6 7 7 7 6 6 6 7 7 8 8 9 9 9 10 10
7 7 7 6 6 7 7 7 7 8 7 7 8 8 7 7 8 9 9 9 10 10
8 8 8 7 7 8 7 8 8 9 9 9 8 8 8 9 9 10 10 10 11 11
8 8 8 8 8 8 8 9 10 11 11 11 11 10 9 9 10 10 10 11 12 12
9 8 8 9 9 9 9 10 12 12 12 13 14 12 12 11 11 11 11 11 12 13
9 9 9 10 11 11 11 11 12 13 14 14 14 13 13 13 12 13 13 14 14 14
10 11 12 12 12 12 13 13 14 14 14 15 14 12 12 13 14 14 14 15 16 15
13 13 12 12 13 13 13 14 14 15 15 16 15 13 12 12 15 15 15 16 16 16
14 14 15 15 14 14 14 15 16 17 17 17 16 13 12 13 16 15 15 15 15 15
14 16 16 16 16 16 17 18 18 17 17 15 16 13 13 13 16 16 16 16 15 15
15 17 17 16 17 18 18 17 16 15 15 15 15 13 12 14 16 17 16 16 16 15
17 18 18 18 19 19 17 16 16 16 16 16 15 14 12 13 15 16 16 16 16 15

GFSNIL_con_lsi_066.txt.gz
Lid_Strength_Index
6 5 5 5 5 5 5 5 5 5 4 3 3 3 4 5 6 7 7 8 9 8
6 6 5 6 5 5 5 5 7 6 6 5 4 3 3 5 6 7 7 8 8 8
7 6 6 6 6 6 6 6 7 7 6 6 5 4 4 5 6 7 7 8 8 8
8 7 7 6 6 6 7 7 7 7 6 6 6 6 6 6 6 8 8 8 8 9
8 8 8 7 7 8 7 8 7 8 7 7 6 7 7 7 8 9 9 9 9 9
8 9 8 8 8 9 9 9 9 9 9 8 8 8 8 7 8 9 8 9 9 9
9 9 9 9 9 9 9 9 10 11 9 10 10 9 9 9 9 10 9 10 10 10
9 9 10 10 11 11 11 10 10 11 12 12 13 12 12 12 11 11 11 12 12 12
12 12 12 12 12 12 12 12 12 13 13 14 12 11 10 12 12 13 13 13 14 14
14 14 13 12 12 13 12 13 13 13 14 14 14 11 11 11 13 14 14 14 15 15
13 14 15 15 15 13 14 15 15 16 16 16 15 12 11 11 14 14 14 14 15 15
15 14 15 15 16 17 17 18 18 17 16 15 15 12 11 12 14 15 15 15 15 15
15 15 16 16 17 17 18 17 15 14 14 15 14 13 12 13 15 16 16 15 15 14
15 16 16 18 18 19 18 15 15 16 16 15 15 14 12 13 15 15 16 15 15 14

GFSNIL_con_lsi_069.txt.gz
Lid_Strength_Index
6 6 5 6 6 6 6 5 5 5 2 1 2 3 3 4 5 5 6 6 6 7
7 6 5 6 6 5 6 6 6 6 6 4 3 2 2 3 4 5 6 6 6 7
8 7 6 6 7 6 6 7 7 7 6 6 6 5 5 4 4 5 5 6 6 7
8 8 8 7 7 7 7 7 7 7 7 7 7 7 5 5 5 6 6 6 7 7
8 8 8 8 7 8 7 8 7 8 8 7 6 6 6 6 6 6 7 7 8 8
9 9 9 8 8 9 9 9 9 9 9 8 7 6 6 6 6 7 7 7 8 8
10 9 9 9 9 10 10 10 10 11 10 10 8 8 7 7 8 8 8 8 8 8
11 11 11 12 12 12 12 11 11 12 12 12 11 9 10 10 10 10 9 11 11 10
14 14 14 14 13 13 13 13 13 13 13 13 12 10 9 10 11 12 12 12 12 12
14 14 14 14 14 13 13 13 13 13 13 14 14 11 10 11 13 13 13 13 13 14
15 15 15 14 15 14 14 15 15 15 15 16 15 11 10 10 13 13 13 13 13 14
15 15 15 16 15 15 16 17 17 16 17 17 13 12 11 11 13 14 14 14 14 14
15 15 14 14 15 16 18 16 16 14 13 13 13 12 11 12 14 15 15 15 15 14
16 16 16 16 18 18 18 17 17 15 14 13 14 13 11 12 14 15 15 15 15 14

GFSNIL_con_lsi_072.txt.gz
Lid_Strength_Index
6 6 6 6 6 6 6 6 6 6 3 1 1 2 3 3 4 4 5 5 5 6
7 6 6 6 6 6 6 6 6 6 6 5 3 1 2 2 4 4 5 5 5 6
9 8 8 7 7 7 7 7 7 7 7 7 6 5 3 3 3 4 4 5 6 6
9 9 9 8 8 8 8 8 8 8 7 7 7 7 6 5 4 4 5 5 6 6
9 9 9 9 8 8 8 8 8 8 8 8 8 8 8 7 6 6 6 6 6 6
10 10 10 9 9 9 9 9 10 10 10 9 9 8 7 6 6 6 6 6 7 7
11 11 11 11 11 11 11 11 11 11 11 11 10 9 7 7 7 7 7 7 7 8
12 13 13 13 13 13 13 12 12 13 13 13 12 10 9 9 8 9 8 9 10 10
14 14 14 14 14 14 14 13 13 13 13 13 12 10 9 9 11 11 11 10 11 11
15 15 15 15 15 14 14 14 14 14 14 14 14 11 10 9 10 11 11 11 11 12
15 16 16 16 16 15 15 14 15 15 15 16 14 11 10 9 11 11 12 12 12 12
15 16 16 16 16 16 16 16 16 15 16 17 15 10 10 9 11 11 12 13 13 13
16 17 17 16 16 17 18 15 15 15 17 17 13 11 10 10 11 12 13 13 13 13
16 17 17 17 17 17 17 17 18 17 18 17 14 13 11 9 12 12 13 13 13 12

GFSNIL_con_lsi_075.txt.gz
Lid_Strength_Index
4 3 3 3 3 4 3 3 3 3 2 1 0 0 1 1 2 2 4 4 4 4
7 6 5 5 5 4 4 5 4 4 4 4 3 1 1 1 2 3 3 4 4 4
8 8 7 7 7 6 6 6 6 6 5 5 5 4 3 2 1 2 3 3 4 4
8 8 8 8 7 7 7 7 7 7 6 6 6 5 5 4 4 4 4 4 5 5
9 9 9 9 9 8 8 8 8 8 8 7 7 7 7 6 6 6 6 5 5 5
10 10 10 10 10 10 10 10 9 9 9 9 9 8 8 7 7 6 6 6 6 6
11 11 11 11 11 11 11 11 11 11 11 11 10 10 9 8 7 7 6 6 6 6
12 13 13 13 13 13 13 12 12 12 12 11 11 11 10 10 9 9 9 8 8 8
13 14 14 14 14 14 13 13 13 13 13 13 12 10 10 10 11 11 11 10 10 10
14 15 15 15 15 14 14 14 14 14 13 13 13 11 10 10 11 11 10 10 10 10
15 15 15 16 15 15 15 15 15 15 14 14 14 11 10 10 10 10 10 10 10 11
16 16 16 17 16 15 15 15 15 14 15 15 14 11 9 9 11 10 10 11 11 11
16 17 17 16 16 16 16 15 15 14 14 15 15 12 11 10 11 11 11 12 12 12
16 17 17 16 17 16 17 16 16 16 15 15 15 14 11 10 11 11 12 12 12 12

GFSNIL_con_lsi_078.txt.gz
Lid_Strength_Index
3 2 2 2 1 1 0 0 0 0 0 -0 -0 -0 -0 0 1 1 2 2 2 3
4 4 4 4 3 3 3 4 4 3 2 2 2 1 1 1 1 1 1 1 1 2
6 5 5 5 5 5 4 4 4 4 4 4 3 3 3 2 2 2 1 2 2 3
6 6 6 6 6 6 6 6 6 6 5 5 5 4 4 4 4 4 3 3 3 4
7 7 7 8 8 7 7 7 7 7 7 7 6 6 6 6 5 5 5 5 5 5
9 9 9 9 9 9 9 8 8 9 9 9 8 8 8 7 7 6 6 6 6 6
10 10 10 10 10 10 10 10 9 9 9 9 9 9 9 8 8 7 7 7 6 6
10 11 11 11 11 11 10 10 10 10 10 10 10 9 9 9 9 9 9 9 8 8
12 12 12 12 12 12 12 12 12 11 11 11 10 10 10 10 10 10 10 10 9 8
13 13 13 13 13 13 13 13 13 12 12 12 11 10 10 10 10 9 9 9 9 9
13 13 13 14 14 13 13 13 13 13 12 12 11 10 10 10 9 8 8 8 8 9
14 14 14 15 14 14 14 13 13 13 12 12 12 11 10 10 10 10 9 9 8 9
14 15 15 14 14 13 14 14 13 13 12 12 12 12 11 10 10 11 10 9 9 10
14 15 14 14 14 14 14 13 13 13 12 12 12 12 11 10 10 10 11 11 11 10

GFSNIL_con_lsi_081.txt.gz
Lid_Strength_Index
1 1 1 1 1 1 1 1 1 2 1 1 1 0 -0 0 0 0 1 1 1 1
4 4 4 4 3 4 3 4 4 3 3 3 2 2 2 2 2 1 1 1 1 2
5 5 5 5 5 5 5 5 5 5 4 4 4 4 3 3 2 3 2 2 2 2
6 6 6 6 6 6 6 6 6 7 6 6 6 5 5 5 5 5 5 4 4 4
7 7 8 8 8 7 8 7 8 8 8 7 7 7 7 7 6 6 6 6 5 6
8 8 9 9 9 9 9 9 9 9 9 9 8 8 8 8 8 7 7 6 6 6
9 9 10 10 10 10 10 10 10 10 10 9 9 9 9 9 9 8 8 8 8 8
10 11 11 11 11 11 11 11 11 11 11 10 10 10 10 10 10 10 10 9 9 8
12 12 12 12 12 12 12 11 11 12 12 12 11 10 10 11 11 11 11 10 10 9
13 13 13 13 13 12 12 12 12 12 12 12 12 11 10 11 12 11 11 10 10 10
13 13 13 13 13 13 13 13 13 13 13 13 13 11 11 11 11 11 10 10 10 10
14 14 14 15 14 13 13 14 14 13 13 14 13 11 11 11 12 12 11 11 10 10
14 15 15 14 15 14 14 14 14 14 13 13 14 11 11 11 12 12 11 10 10 11
15 16 15 15 14 15 14 14 15 15 14 13 12 12 10 10 11 11 12 11 11 11

GFSNIL_con_lsi_084.txt.gz
Lid_Strength_Index
1 1 2 3 3 4 5 6 6 5 5 4 4 4 4 4 3 3 3 2 3 2
6 6 7 7 7 7 7 6 6 6 6 6 6 5 5 5 5 5 5 5 4 4
8 7 8 8 8 8 8 8 8 8 8 8 7 7 7 7 7 7 7 6 6 6
9 9 9 9 9 9 9 9 9 9 9 9 9 9 9 9 8 8 8 8 8 7
10 10 10 10 10 10 10 10 10 10 10 10 10 10 10 10 10 9 9 9 8 8
11 11 11 11 11 11 11 11 11 11 11 11 10 10 10 10 10 10 9 9 9 9
13 12 12 12 12 12 12 12 12 12 12 12 11 11 10 11 11 11 10 10 10 10
13 12 12 13 13 14 14 13 13 13 13 12 12 11 11 12 12 12 12 12 11 11
14 14 14 15 15 15 15 15 15 14 14 14 12 11 10 11 12 13 13 13 12 12
14 15 15 15 16 16 15 15 15 15 15 15 14 12 11 11 13 13 13 13 13 13
16 16 16 16 16 16 16 16 16 15 16 15 15 12 12 11 13 14 14 13 13 12
16 18 17 18 17 16 17 17 17 16 17 18 15 13 12 12 13 13 13 12 11 11
17 19 19 18 18 18 18 16 16 16 17 17 17 13 12 11 13 13 13 11 11 10
18 20 19 19 19 20 19 17 17 17 16 18 17 15 11 10 11 12 12 12 11 10

GFSNIL_con_lsi_087.txt.gz
Lid_Strength_Index
3 3 5 5 6 7 7 7 7 7 7 6 6 6 6 6 6 6 6 6 6 4
6 7 8 8 8 8 8 8 8 8 9 8 8 8 8 8 8 8 8 8 8 7
9 9 9 9 10 10 10 9 10 10 10 10 10 9 9 10 9 10 10 9 9 8
10 10 10 11 11 10 10 10 11 11 11 11 11 10 11 11 11 11 11 10 9 9
11 11 11 12 11 11 12 12 12 12 12 11 11 12 12 12 11 11 11 10 10 10
12 12 12 12 13 13 13 13 13 12 12 12 12 13 12 12 12 12 12 11 12 11
13 13 13 14 14 13 13 13 13 13 13 13 14 13 13 12 13 13 13 12 12 12
14 14 14 15 14 15 15 14 14 14 15 15 14 13 13 14 14 14 14 14 13 13
15 15 15 15 15 15 15 15 16 16 16 16 14 13 12 12 14 14 14 14 14 14
16 15 16 16 16 16 16 16 17 17 16 16 16 13 12 12 14 14 14 14 14 14
16 16 16 16 17 17 17 17 17 17 17 17 16 13 12 12 14 14 15 14 13 13
16 17 18 19 19 18 18 18 19 17 19 20 17 14 12 12 14 14 14 14 12 12
17 20 20 19 20 19 19 18 18 17 19 19 19 15 13 12 15 16 14 13 11 10
19 21 20 20 20 21 22 21 23 20 19 20 19 18 13 12 13 14 13 12 12 11

GFSNIL_con_lsi_090.txt.gz
Lid_Strength_Index
4 4 5 5 6 6 7 8 8 8 8 8 8 8 8 8 8 9 9 9 9 8
7 7 8 8 8 9 10 10 10 10 10 10 10 10 10 10 10 11 11 10 10 10
10 9 10 10 11 11 11 11 11 11 11 11 11 11 11 11 11 12 12 11 12 12
12 11 11 11 11 11 12 12 12 12 12 12 13 13 12 12 12 13 13 13 13 12
12 12 12 12 12 12 12 12 13 13 13 13 13 13 13 13 13 14 14 14 13 13
13 13 13 13 13 13 13 14 14 14 14 14 14 14 13 13 14 14 14 14 14 14
14 14 14 14 14 15 15 15 15 15 15 15 15 14 14 14 15 15 14 13 14 14
15 15 15 16 16 16 16 16 15 16 16 15 15 14 15 15 15 15 15 15 14 14
15 16 17 17 17 17 17 16 16 16 16 16 15 14 13 13 15 15 15 15 15 14
16 17 17 17 17 16 16 16 16 16 16 17 17 14 13 13 15 15 15 15 14 14
17 17 17 17 17 17 17 17 17 17 17 17 17 14 13 13 15 15 15 15 15 15
17 18 18 18 18 17 18 18 19 18 20 20 19 14 13 13 15 15 15 14 15 15
18 19 19 18 18 18 20 18 18 18 20 20 20 16 14 13 16 17 15 15 14 13
19 19 19 19 20 22 23 21 25 22 21 21 21 20 14 14 15 16 16 16 15 12

GFSNIL_con_lsi_093.txt.gz
Lid_Strength_Index
2 3 4 3 5 7 7 8 8 9 10 10 10 10 9 10 10 11 11 12 12 11
6 6 8 8 9 8 9 9 11 11 11 11 11 11 11 11 12 12 13 13 13 12
8 9 10 9 10 10 11 11 12 12 12 12 12 12 12 13 13 14 14 13 13 13
10 11 11 10 11 12 12 12 12 12 13 13 14 14 13 14 14 14 14 14 14 14
12 13 12 13 13 13 13 13 13 13 14 15 15 15 14 15 14 15 15 14 15 15
14 14 13 13 13 13 14 14 14 15 16 16 15 15 15 15 15 15 15 15 15 15
14 14 14 14 14 14 15 15 16 16 16 16 16 15 15 15 15 15 15 15 15 15
15 14 14 15 15 15 16 17 17 17 17 17 16 14 15 15 15 16 16 15 15 15
15 15 16 16 16 17 17 17 17 17 17 17 16 13 12 13 15 16 16 16 15 15
16 16 16 16 17 17 17 17 18 18 17 17 17 13 13 13 15 15 16 15 15 15
16 16 17 18 18 18 18 18 18 18 17 17 17 14 14 13 15 16 15 15 15 15
17 18 19 19 19 18 19 19 19 18 20 20 20 15 14 14 16 16 16 15 15 15
18 19 19 18 19 19 19 18 18 18 20 21 23 16 15 15 17 20 17 17 15 14
19 19 19 20 20 21 21 20 22 21 20 21 21 20 15 15 17 18 19 19 17 16

GFSNIL_con_lsi_096.txt.gz
Lid_Strength_Index
3 3 3 2 3 4 6 7 8 9 9 10 10 10 11 11 12 12 13 14 13 13
3 5 5 6 6 7 8 9 10 10 12 12 11 11 12 13 13 14 14 14 14 14
6 8 8 8 9 10 11 11 11 13 13 13 12 12 13 14 15 15 15 15 15 15
9 10 10 10 11 11 12 12 13 13 14 14 13 13 14 15 15 16 16 15 15 15
11 11 12 11 12 12 12 13 14 14 14 14 14 15 15 16 16 16 16 16 16 16
12 12 12 13 14 13 14 15 15 15 15 15 16 16 16 16 16 16 15 15 16 16
13 13 13 13 15 15 15 15 15 16 16 16 16 16 16 16 16 16 15 15 15 15
14 14 15 15 15 15 15 16 16 16 17 17 16 15 16 15 16 16 16 15 15 15
14 16 15 15 16 16 16 16 17 17 17 18 16 13 13 15 15 15 15 15 16 16
15 15 16 16 16 16 17 17 17 17 18 18 17 13 13 13 15 15 15 16 15 15
16 16 16 17 17 17 18 18 18 18 18 18 16 14 14 13 15 15 15 16 16 16
15 16 17 17 18 18 18 19 19 18 20 20 19 15 13 14 16 16 16 16 16 16
16 16 17 18 18 18 19 19 19 19 21 21 20 15 14 15 16 18 17 17 16 16
17 17 17 18 19 19 20 21 22 21 21 20 19 18 15 15 16 17 18 19 18 17

GFSNIL_con_lsi_099.txt.gz
Lid_Strength_Index
1 2 2 3 3 3 3 5 7 8 8 8 8 9 9 10 10 10 10 11 11 11
1 2 3 3 4 5 7 8 9 9 10 10 10 11 11 11 11 11 11 12 12 12
2 3 4 6 7 8 10 10 11 11 11 11 11 12 12 12 12 12 12 13 13 13
5 5 6 7 9 9 11 12 12 12 12 12 12 13 13 13 13 13 14 14 14 14
6 7 8 10 11 11 12 13 13 13 13 13 13 13 13 13 14 14 14 15 14 15
7 8 9 12 13 13 13 13 14 13 14 14 14 14 13 14 14 14 14 15 15 15
8 9 11 13 13 13 13 15 14 14 14 14 14 14 14 14 14 14 15 15 14 15
11 11 13 13 14 14 14 15 15 15 15 14 14 14 14 14 15 15 15 15 15 14
12 13 14 15 15 15 15 15 15 15 15 15 14 13 13 14 15 15 15 15 15 14
13 15 15 15 16 16 17 16 16 16 15 16 15 13 12 14 15 15 15 15 15 15
14 15 16 16 17 17 16 16 16 16 16 17 15 13 13 15 15 15 15 15 15 15
14 15 16 17 17 17 16 17 17 17 18 17 16 13 13 15 16 16 16 15 15 15
14 14 15 16 16 17 16 17 17 18 18 18 16 14 14 15 16 17 16 16 16 15
15 15 16 16 17 17 17 18 19 19 19 19 18 16 15 15 16 16 16 17 16 16

GFSNIL_con_lsi_102.txt.gz
Lid_Strength_Index
0 1 1 1 1 1 1 2 3 4 5 6 7 7 6 6 7 7 8 9 9 9
1 1 1 0 0 1 2 5 5 6 7 8 8 8 7 8 9 9 9 9 9 9
1 1 0 0 1 3 5 7 8 9 9 9 9 9 9 9 10 10 10 10 10 10
1 1 1 2 3 4 8 9 10 10 10 11 10 10 10 10 11 11 11 11 10 11
1 3 4 4 6 8 9 11 11 12 12 12 11 11 11 12 11 11 11 11 12 13
4 4 5 6 8 9 11 12 13 13 12 12 11 11 11 12 12 11 11 12 13 13
4 4 5 7 8 10 12 12 14 13 13 12 11 12 12 12 12 12 11 12 13 13
6 6 7 9 10 12 13 13 14 14 13 12 12 12 12 12 12 12 12 13 13 13
9 11 11 11 12 13 15 15 14 14 14 13 13 12 12 12 12 13 14 14 13 14
11 12 12 13 14 14 16 15 15 14 13 13 12 12 12 12 13 14 14 14 14 14
13 13 14 14 15 17 16 16 16 15 13 13 12 11 11 13 14 14 14 14 14 14
12 14 15 15 15 15 16 17 15 16 14 13 12 11 12 14 14 15 15 15 15 15
14 14 14 15 15 16 16 15 17 15 14 14 13 12 13 14 14 15 15 15 16 16
13 13 13 15 15 15 16 16 15 16 16 15 14 13 12 13 14 15 16 16 16 15

GFSNIL_con_lsi_105.txt.gz
Lid_Strength_Index
1 1 1 1 1 1 1 1 -0 1 2 3 4 6 5 5 5 5 6 7 8 9
1 1 1 1 0 1 0 1 2 3 4 5 6 7 7 7 8 7 7 8 9 9
1 1 1 1 1 1 1 3 4 5 6 7 8 8 7 8 8 9 9 9 10 10
1 1 1 1 1 1 2 4 5 7 8 8 9 9 9 9 9 10 10 10 10 11
1 1 1 1 1 2 3 5 6 8 10 11 10 10 10 11 10 11 11 11 11 12
2 1 1 1 3 5 6 7 9 11 11 12 11 11 11 11 11 11 11 11 12 12
2 2 2 3 5 7 8 10 11 11 12 12 12 12 11 12 11 11 11 11 11 12
4 4 5 8 8 10 11 10 11 12 13 13 13 13 12 12 12 12 12 12 12 12
7 9 10 10 10 12 13 13 12 14 14 15 14 12 12 13 12 13 13 13 13 12
12 13 12 12 13 13 13 14 14 13 15 14 15 12 12 13 13 13 12 13 13 13
12 13 14 14 13 13 14 14 14 14 15 15 15 12 13 12 13 13 13 13 13 14
13 14 15 14 15 15 15 15 15 15 15 15 13 13 12 13 13 13 14 14 14 14
13 14 14 15 15 15 14 15 16 16 15 14 14 11 13 12 13 15 15 15 15 15
13 14 13 13 14 15 15 16 15 15 15 14 13 13 12 13 14 14 15 15 16 15

GFSNIL_con_lsi_108.txt.gz
Lid_Strength_Index
1 1 1 1 1 1 1 1 1 1 1 1 2 3 4 5 5 5 6 8 10 11
1 1 1 1 1 1 1 2 2 2 3 4 5 5 5 6 8 8 8 9 11 11
1 1 1 1 1 1 2 3 3 3 5 6 6 7 8 9 9 8 9 10 11 12
2 1 1 1 1 1 2 3 4 5 7 7 8 8 9 10 10 10 11 11 12 12
2 2 2 2 2 3 3 4 5 7 8 8 9 10 11 11 11 11 12 12 12 13
4 3 3 3 4 5 6 6 7 7 8 10 10 11 11 12 13 12 12 12 13 13
5 4 4 3 5 6 7 8 9 8 9 9 10 12 12 12 13 13 12 13 13 13
6 5 5 6 7 8 9 9 9 10 10 11 12 12 13 13 14 13 14 13 15 13
8 8 9 10 11 12 12 12 12 12 12 13 12 13 12 14 14 14 14 14 15 15
12 13 12 12 13 13 13 14 13 13 14 14 14 12 12 13 13 14 15 15 15 16
13 13 14 14 14 14 14 14 14 14 14 14 15 11 12 12 14 15 15 15 15 15
13 15 14 14 15 15 15 15 15 15 15 15 14 12 12 13 15 15 14 15 15 14
14 14 13 14 15 16 16 15 15 15 15 14 13 12 12 13 15 15 15 15 15 14
16 15 13 14 16 15 16 16 15 15 14 14 13 13 13 13 15 15 16 16 16 15

GFSNIL_con_lsi_111.txt.gz
Lid_Strength_Index
1 1 1 1 1 1 1 1 1 1 1 1 1 1 2 2 2 3 4 5 7 8
2 2 2 1 1 1 1 1 1 2 2 2 2 2 3 3 4 4 5 7 9 9
2 2 2 1 1 1 1 2 2 2 2 2 3 4 5 6 7 7 9 9 11 11
2 2 2 2 1 1 2 2 3 3 3 4 5 6 6 6 8 8 10 12 10 12
3 3 2 2 2 2 3 2 3 3 4 5 6 7 7 9 9 9 12 12 13 12
4 3 3 2 2 3 3 3 3 4 5 7 8 8 8 8 10 10 11 11 13 14
6 5 4 4 5 6 6 6 6 5 6 7 8 8 8 9 11 11 11 12 13 13
8 6 5 6 6 7 7 7 8 8 9 9 9 9 9 10 11 12 13 13 13 14
9 8 9 9 10 9 10 10 10 10 10 10 9 10 11 11 12 14 14 14 15 14
11 10 11 12 11 11 11 12 12 12 13 13 12 11 11 12 13 14 14 14 15 15
12 12 12 11 11 12 12 12 13 13 13 13 14 11 11 12 14 14 14 14 15 15
12 15 13 13 13 12 13 14 13 14 13 14 14 11 11 12 14 15 14 14 14 14
14 15 13 13 14 15 15 14 14 14 14 14 14 11 11 13 14 14 15 15 15 14
16 14 13 13 15 14 15 15 14 15 15 14 14 13 11 12 14 14 15 15 16 15

GFSNIL_con_lsi_114.txt.gz
Lid_Strength_Index
1 1 1 1 1 1 1 1 1 1 1 1 2 2 3 2 2 2 2 2 4 5
1 1 1 1 1 1 1 1 1 1 1 1 2 3 3 3 3 2 2 3 4 5
2 2 1 2 2 1 1 1 2 2 2 2 2 3 3 3 2 3 3 4 6 8
2 2 2 2 2 2 1 1 2 2 2 2 2 2 3 3 4 5 4 8 8 8
2 2 3 3 3 2 2 2 2 2 2 3 3 3 4 4 5 6 7 9 10 11
5 3 3 3 3 3 3 3 3 3 3 3 3 4 5 4 6 7 7 8 11 12
7 5 5 4 4 4 3 3 3 3 3 4 5 6 6 6 7 8 8 9 9 10
9 8 7 6 5 5 6 6 6 6 7 7 7 7 7 7 7 8 9 10 11 11
10 10 9 9 9 9 9 10 11 11 11 10 8 9 10 9 9 11 11 13 13 14
12 11 11 11 11 11 11 11 11 11 11 11 10 10 10 11 11 12 13 13 14 14
12 13 13 11 12 12 12 12 12 11 11 11 12 10 9 11 12 12 13 13 13 15
13 16 13 13 12 12 13 13 13 14 13 13 13 11 10 11 13 14 14 14 13 13
14 15 13 13 14 14 14 14 14 14 14 13 13 11 10 12 13 14 15 14 14 14
15 13 13 13 14 14 14 14 14 14 14 14 13 13 10 11 13 14 14 15 15 14

GFSNIL_con_lsi_117.txt.gz
Lid_Strength_Index
2 1 1 2 1 2 1 1 1 1 1 1 1 1 2 2 3 3 3 3 2 2
2 2 2 1 1 1 1 1 1 1 1 1 1 2 2 2 3 3 3 3 2 3
3 2 2 2 2 2 1 1 2 2 1 1 1 1 2 2 2 3 3 3 3 3
3 2 2 2 2 2 2 2 2 2 2 2 2 2 2 2 2 3 3 3 4 4
4 4 3 3 3 3 3 3 3 3 3 3 2 2 2 3 3 3 4 4 6 6
4 4 3 3 4 4 4 3 2 2 3 3 2 2 2 2 3 4 4 4 6 6
7 6 6 5 4 3 3 2 3 3 2 2 2 3 3 3 4 4 5 5 5 6
10 9 9 8 8 7 6 5 5 5 5 6 6 6 6 6 6 7 8 9 9 10
10 11 9 9 10 10 10 9 9 10 10 9 8 10 9 9 9 9 10 11 12 12
12 12 12 12 12 12 11 11 11 11 11 11 10 10 9 10 10 11 10 12 13 14
13 13 13 12 12 12 12 13 12 12 12 11 12 10 9 10 11 11 11 12 12 13
14 15 14 13 12 13 13 14 13 14 14 14 13 11 10 10 13 12 13 13 13 13
15 15 14 14 14 15 14 14 14 13 13 14 13 11 10 11 13 13 14 14 14 13
15 14 14 14 14 14 14 14 13 13 13 13 13 12 10 11 13 13 14 14 14 13